Simultaneous Nadir Overpasses (SNOs) Predictions

Prediction of SNOs between AURA and NPP Satellite Orbit:

Table of predicted SNOs for the next 14.0 days since TLE Epoch: 7/20/2024
Index Date (AURA) Time (AURA) Lat,Lon (AURA) SZA (AURA ) Date (NPP) Time (NPP) Lat,Lon (NPP) SZA (NPP ) Distance(km) Time Diff (sec)
1 07/22/2024 07:17:17 80.69, -19.29 70.39 07/22/2024 07:16:50 80.69, -19.40 70.42 1.89 27
2 07/22/2024 08:06:38 -80.78, 149.37 109.78 07/22/2024 08:07:31 -80.77, 149.30 109.80 1.24 53
3 07/24/2024 20:11:54 80.67, 146.79 70.96 07/24/2024 20:10:48 80.66, 146.69 71.02 1.75 66
4 07/24/2024 21:01:15 -80.75, -44.55 109.21 07/24/2024 21:01:29 -80.75, -44.59 109.21 0.80 14
5 07/27/2024 09:55:51 -80.74, 121.64 108.62 07/27/2024 09:55:27 -80.74, 121.80 108.63 2.88 24
6 07/27/2024 10:45:12 80.78, -70.25 71.32 07/27/2024 10:46:10 80.78, -70.26 71.28 0.40 58
7 07/29/2024 22:50:26 -80.70, -72.40 107.97 07/29/2024 22:49:26 -80.71, -72.23 107.96 3.15 60
8 07/29/2024 23:39:46 80.77, 96.03 71.92 07/29/2024 23:40:08 80.77, 96.02 71.90 0.16 22
9 08/01/2024 12:34:19 80.74, -97.92 72.59 08/01/2024 12:34:06 80.75, -97.76 72.57 3.05 13



Historial Predications of SNOs between AURA and NPP
